Location: �couen
(49.0206°N, 2.3831°E)
Time: 12:08:42
(UTC+00:00)

Cosmos 1455 Rocket - Pass Details

Date: 16 October 2021
Orbit: 604 x 630 km, 82.5° (Epoch: 07 December)

Event Time Altitude Azimuth Distance (km) Brightness Sun altitude
Rises 18:07:59 0° 169° (S) 2,879 6.4 -12.2°
Reaches altitude 10° 18:10:16 10° 163° (SSE) 1,983 5.5 -12.5°
Maximum altitude 18:14:25 42° 93° (E) 893 3.4 -13.2°
Drops below altitude 10° 18:18:37 10° 22° (NNE) 2,013 5.5 -13.9°
Sets 18:20:57 0° 16° (NNE) 2,928 6.4 -14.3°
